Home > Weather > Youngstown > Past weeks

Flag for USA Past Weather in Youngstown, Ohio, USA — Yesterday and Last 2 Weeks

Now
65 °F

Partly cloudy.


Feels Like: 65 °F
Forecast: 66 / 85 °F
Wind: No wind

Location: Youngstown-Warren Regional Airport

Current Time: Jul 29, 2016 at 1:57:22 AM

Latest Report: Jul 29, 2016 at 12:51 AM


Visibility: 7 mi

Pressure: 29.90 "Hg

Humidity: 97%

Dew Point: 64 °F

Location of YoungstownLocation

Past Weather in Youngstown — Graph

°F

Youngstown Temperature Yesterday

Maximum temperature yesterday: 81 °F (at 11:51 AM)
Minimum temperature yesterday: 64 °F (at 4:51 AM)
Average temperature yesterday: 72 °F

High & Low Weather Summary for the Past Weeks

 TemperatureHumidityPressure
High91 °F (Jul 23, 2:51 PM)97% (Jul 17, 2:51 AM)30.28 "Hg (Jul 17, 2:51 AM)
Low52 °F (Jul 20, 4:51 AM)30% (Jul 20, 3:51 PM)29.84 "Hg (Jul 14, 5:51 PM)
Average74 °F70%30.02 "Hg
* Reported Jul 13 11:51 PM — Jul 28 11:51 PM, Youngstown, Weather by CustomWeather, © 2016

Note: Actual official high and low records may vary slightly from our data, if they occured in-between our weather recording intervals... More about our weather records

Advertising

Youngstown Weather History for the Previous 24 Hours

Scroll right to see more
 ConditionsComfort  
Time TempWeatherWind HumidityBarometerVisibility
11:51 PM
Thu, Jul 28
68 °FPartly cloudy.No wind90%29.90 "Hg10 mi
10:51 PM70 °FPartly cloudy.5 mph84%29.90 "Hg10 mi
9:51 PM72 °FMostly cloudy.6 mph78%29.90 "Hg10 mi
8:51 PM72 °FMostly cloudy.5 mph78%29.89 "Hg10 mi
7:51 PM74 °FMostly cloudy.5 mph79%29.88 "Hg10 mi
6:51 PM76 °FCloudy.No wind74%29.88 "Hg10 mi
5:51 PM77 °FCloudy.7 mph69%29.87 "Hg10 mi
4:51 PM77 °FMore clouds than sun.9 mph69%29.86 "Hg10 mi
3:51 PM77 °FMostly cloudy.8 mph74%29.88 "Hg10 mi
2:51 PM80 °FMostly cloudy.9 mph71%29.88 "Hg10 mi
1:51 PM81 °FMostly cloudy.7 mph67%29.89 "Hg10 mi
12:51 PM80 °FMostly cloudy.No wind71%29.90 "Hg10 mi
11:51 AM81 °FMore clouds than sun.5 mph69%29.89 "Hg10 mi
10:51 AM77 °FOvercast.3 mph74%29.90 "Hg10 mi
9:51 AM75 °FCloudy.5 mph74%29.91 "Hg10 mi
8:51 AM73 °FMore clouds than sun.3 mph76%29.92 "Hg10 mi
7:51 AM70 °FMore clouds than sun.5 mph81%29.91 "Hg10 mi
6:51 AM66 °FMostly cloudy.7 mph90%29.91 "Hg10 mi
5:51 AM65 °FPassing clouds.8 mph91%29.90 "Hg10 mi
4:51 AM64 °FPartly cloudy.6 mph90%29.90 "Hg10 mi
3:51 AM66 °FPassing clouds.3 mph84%29.90 "Hg10 mi
2:51 AM66 °FPassing clouds.6 mph84%29.92 "Hg10 mi
1:51 AM65 °FPassing clouds.7 mph87%29.93 "Hg10 mi
Weather by CustomWeather, © 2016

See weather overviewHow to use our weather pages